When you browse on this site, cookies collect data to enhance your experience and personalize the content and advertising you see.
Visit our Privacy Policy to learn more. By continuing to use the site, you agree to this use of cookies and data.
  • In Hungary
  • List of Countries
  • For 7 days
  • Water Temperature
  • Satellite Maps
  • Weather Map
  • News
  • Weather Widgets
  • user-avatar
    Login

    Hourly Weather Wakefield

    Today, 17 January, Thursday

    Time Temperature Precipitation Wind Pressure Humidity
    00:00 +3°C° 0 mm 4 mps 744 mmHg 80%
    01:00 +1°C° 0 mm 4 mps 744 mmHg 80%
    02:00 +1°C° 0 mm 4 mps 745 mmHg 79%
    03:00 +1°C° 0 mm 5 mps 745 mmHg 79%
    04:00 0°C° 0.1 mm 5 mps 746 mmHg 73%
    05:00 -1°C° 0.1 mm 6 mps 747 mmHg 67%
    06:00 -2°C° 0.1 mm 6 mps 748 mmHg 61%
    07:00 -2°C° 0 mm 6 mps 749 mmHg 60%
    08:00 -2°C° 0 mm 6 mps 749 mmHg 59%
    09:00 -2°C° 0 mm 6 mps 750 mmHg 58%
    10:00 -1°C° 0 mm 6 mps 751 mmHg 56%
    11:00 +1°C° 0 mm 6 mps 752 mmHg 54%
    12:00 0°C° 0 mm 7 mps 752 mmHg 52%
    13:00 +2°C° 0 mm 6 mps 753 mmHg 53%
    14:00 +2°C° 0 mm 5 mps 753 mmHg 53%
    15:00 +3°C° 0 mm 4 mps 754 mmHg 54%
    16:00 +1°C° 0 mm 4 mps 754 mmHg 56%
    17:00 +1°C° 0 mm 3 mps 755 mmHg 59%
    18:00 0°C° 0 mm 3 mps 755 mmHg 61%
    19:00 +1°C° 0 mm 2 mps 756 mmHg 61%
    20:00 +1°C° 0 mm 2 mps 756 mmHg 62%
    21:00 +1°C° 0 mm 2 mps 756 mmHg 63%
    22:00 +2°C° 0 mm 1 mps 756 mmHg 63%
    23:00 +2°C° 0 mm 1 mps 757 mmHg 62%

    Tomorrow, 18 January, Friday

    Time Temperature Precipitation Wind Pressure Humidity
    00:00 +2°C° 0 mm 1 mps 757 mmHg 62%
    01:00 +2°C° 0 mm 1 mps 756 mmHg 62%
    02:00 +2°C° 0 mm 1 mps 756 mmHg 62%
    03:00 +2°C° 0 mm 1 mps 756 mmHg 62%
    04:00 +2°C° 0 mm 1 mps 756 mmHg 63%
    05:00 +1°C° 0 mm 2 mps 756 mmHg 63%
    06:00 +1°C° 0 mm 2 mps 755 mmHg 64%
    07:00 +1°C° 0 mm 2 mps 755 mmHg 63%
    08:00 0°C° 0 mm 3 mps 755 mmHg 62%
    09:00 0°C° 0 mm 3 mps 755 mmHg 61%
    10:00 +1°C° 0 mm 3 mps 755 mmHg 58%
    11:00 0°C° 0 mm 4 mps 755 mmHg 55%
    12:00 +1°C° 0 mm 4 mps 754 mmHg 53%
    13:00 +1°C° 0 mm 5 mps 754 mmHg 56%
    14:00 +1°C° 0 mm 5 mps 753 mmHg 59%
    15:00 +2°C° 0 mm 5 mps 753 mmHg 62%
    16:00 +1°C° 0.2 mm 5 mps 752 mmHg 65%
    17:00 +1°C° 0.2 mm 5 mps 752 mmHg 69%
    18:00 +1°C° 0.2 mm 5 mps 752 mmHg 72%
    19:00 +1°C° 0.4 mm 5 mps 752 mmHg 74%
    20:00 +1°C° 0.4 mm 5 mps 752 mmHg 77%
    21:00 +1°C° 0.4 mm 5 mps 751 mmHg 79%
    22:00 0°C° 0.2 mm 5 mps 751 mmHg 80%
    23:00 0°C° 0.2 mm 5 mps 751 mmHg 82%

    Day after tomorrow, 19 January, Saturday

    Time Temperature Precipitation Wind Pressure Humidity
    00:00 0°C° 0.2 mm 5 mps 751 mmHg 84%
    01:00 +1°C° 0 mm 5 mps 750 mmHg 85%
    02:00 +1°C° 0 mm 5 mps 750 mmHg 86%
    03:00 +1°C° 0 mm 4 mps 750 mmHg 87%
    04:00 +1°C° 0 mm 4 mps 749 mmHg 88%
    05:00 +1°C° 0 mm 4 mps 749 mmHg 89%
    06:00 +1°C° 0 mm 4 mps 749 mmHg 90%
    07:00 +1°C° 0 mm 4 mps 749 mmHg 90%
    08:00 +1°C° 0 mm 4 mps 749 mmHg 90%
    09:00 +1°C° 0 mm 4 mps 749 mmHg 91%
    10:00 +1°C° 0 mm 4 mps 749 mmHg 90%
    11:00 +3°C° 0 mm 3 mps 749 mmHg 89%
    12:00 +3°C° 0 mm 3 mps 749 mmHg 88%
    13:00 +3°C° 0.1 mm 3 mps 749 mmHg 89%
    14:00 +3°C° 0.1 mm 3 mps 749 mmHg 90%
    15:00 +3°C° 0.1 mm 3 mps 749 mmHg 91%
    16:00 +3°C° 0.1 mm 3 mps 749 mmHg 92%
    17:00 +4°C° 0.1 mm 2 mps 749 mmHg 93%
    18:00 +4°C° 0.1 mm 2 mps 749 mmHg 94%
    19:00 +4°C° 0 mm 2 mps 750 mmHg 94%
    20:00 +4°C° 0 mm 2 mps 750 mmHg 94%
    21:00 +4°C° 0 mm 2 mps 750 mmHg 95%
    22:00 +4°C° 0 mm 2 mps 750 mmHg 95%
    23:00 +4°C° 0 mm 2 mps 751 mmHg 95%

    20 January, Sunday

    Time Temperature Precipitation Wind Pressure Humidity
    00:00 +3°C° 0 mm 2 mps 751 mmHg 94%
    01:00 +4°C° 0.3 mm 2 mps 751 mmHg 94%
    02:00 +4°C° 0.3 mm 2 mps 751 mmHg 94%
    03:00 +4°C° 0.3 mm 2 mps 751 mmHg 93%
    04:00 +3°C° 0.1 mm 3 mps 751 mmHg 94%
    05:00 +3°C° 0.1 mm 3 mps 752 mmHg 95%
    06:00 +3°C° 0.1 mm 3 mps 752 mmHg 95%
    07:00 +3°C° 0 mm 3 mps 753 mmHg 93%
    08:00 +3°C° 0 mm 3 mps 753 mmHg 92%
    09:00 +3°C° 0 mm 3 mps 754 mmHg 90%
    10:00 +4°C° 0 mm 4 mps 754 mmHg 86%
    11:00 +4°C° 0 mm 4 mps 755 mmHg 83%
    12:00 +5°C° 0 mm 5 mps 756 mmHg 79%
    13:00 +3°C° 0 mm 5 mps 756 mmHg 78%
    14:00 +3°C° 0 mm 5 mps 757 mmHg 77%
    15:00 +2°C° 0 mm 5 mps 757 mmHg 76%
    16:00 +2°C° 0 mm 5 mps 758 mmHg 74%
    17:00 +1°C° 0 mm 4 mps 759 mmHg 71%
    18:00 +1°C° 0 mm 4 mps 760 mmHg 69%
    19:00 0°C° 0 mm 4 mps 760 mmHg 70%
    20:00 0°C° 0 mm 4 mps 761 mmHg 71%
    21:00 0°C° 0 mm 4 mps 761 mmHg 72%
    22:00 0°C° 0 mm 4 mps 762 mmHg 72%
    23:00 0°C° 0 mm 4 mps 762 mmHg 71%

    21 January, Monday

    Time Temperature Precipitation Wind Pressure Humidity
    00:00 0°C° 0 mm 4 mps 762 mmHg 71%
    01:00 -1°C° 0 mm 4 mps 762 mmHg 71%
    02:00 -1°C° 0 mm 4 mps 762 mmHg 70%
    03:00 0°C° 0 mm 3 mps 762 mmHg 70%
    04:00 0°C° 0 mm 3 mps 762 mmHg 71%
    05:00 +1°C° 0 mm 2 mps 762 mmHg 71%
    06:00 +1°C° 0 mm 2 mps 761 mmHg 72%
    07:00 +1°C° 0 mm 2 mps 761 mmHg 73%
    08:00 +1°C° 0 mm 2 mps 761 mmHg 75%
    09:00 +1°C° 0 mm 2 mps 761 mmHg 76%
    10:00 +1°C° 0 mm 3 mps 760 mmHg 74%
    11:00 +2°C° 0 mm 3 mps 759 mmHg 72%
    12:00 +3°C° 0 mm 4 mps 759 mmHg 70%
    13:00 +3°C° 0 mm 4 mps 757 mmHg 71%
    14:00 +3°C° 0 mm 4 mps 756 mmHg 72%
    15:00 +2°C° 0 mm 5 mps 754 mmHg 74%
    16:00 +2°C° 0.2 mm 5 mps 753 mmHg 76%
    17:00 +2°C° 0.2 mm 6 mps 751 mmHg 78%
    18:00 +2°C° 0.2 mm 6 mps 750 mmHg 80%
    19:00 +2°C° 0.4 mm 7 mps 748 mmHg 80%
    20:00 +2°C° 0.4 mm 7 mps 747 mmHg 80%
    21:00 +2°C° 0.4 mm 7 mps 745 mmHg 80%
    22:00 +2°C° 1.8 mm 7 mps 744 mmHg 82%
    23:00 +2°C° 1.8 mm 6 mps 742 mmHg 84%

    22 January, Tuesday

    Time Temperature Precipitation Wind Pressure Humidity
    00:00 +2°C° 1.8 mm 5 mps 741 mmHg 87%
    01:00 +2°C° 1.6 mm 5 mps 740 mmHg 87%
    02:00 +1°C° 1.6 mm 5 mps 739 mmHg 88%
    03:00 +1°C° 1.6 mm 5 mps 738 mmHg 88%
    04:00 +1°C° 0.3 mm 5 mps 737 mmHg 86%
    05:00 +1°C° 0.3 mm 6 mps 737 mmHg 84%
    06:00 -1°C° 0.3 mm 7 mps 736 mmHg 81%
    07:00 -1°C° 0.9 mm 7 mps 736 mmHg 83%
    08:00 -1°C° 0.9 mm 7 mps 736 mmHg 85%
    09:00 -1°C° 0.9 mm 6 mps 736 mmHg 87%
    10:00 -1°C° 1.6 mm 6 mps 736 mmHg 89%
    11:00 -2°C° 1.6 mm 6 mps 735 mmHg 91%
    12:00 -2°C° 1.6 mm 6 mps 735 mmHg 92%
    13:00 -2°C° 0.8 mm 6 mps 735 mmHg 92%
    14:00 -2°C° 0.8 mm 6 mps 735 mmHg 92%
    15:00 -1°C° 0.8 mm 6 mps 735 mmHg 91%
    16:00 -1°C° 0.1 mm 5 mps 735 mmHg 92%
    17:00 -1°C° 0.1 mm 4 mps 735 mmHg 92%
    18:00 0°C° 0.1 mm 3 mps 735 mmHg 92%
    19:00 0°C° 0.1 mm 3 mps 735 mmHg 93%
    20:00 -1°C° 0.1 mm 4 mps 736 mmHg 93%
    21:00 -1°C° 0.1 mm 4 mps 736 mmHg 93%
    22:00 0°C° 0 mm 3 mps 737 mmHg 93%
    23:00 0°C° 0 mm 3 mps 737 mmHg 93%
    Show more